Location: Altenhof
(50.2418°N, 10.8789°E)
Time: 08:57:56
(UTC+00:00)

Cosmos 2173 Rocket - Pass Details

Date: 18 February 2020
Orbit: 944 x 1001 km, 83.0° (Epoch: 29 March)

Event Time Altitude Azimuth Distance (km) Brightness Sun altitude
Rises 05:04:18 0° 347° (NNW) 3,721 6.9 -13.2°
Reaches altitude 10° 05:06:54 10° 344° (NNW) 2,762 6.2 -12.8°
Maximum altitude 05:13:03 56° 268° (W) 1,159 4.1 -11.8°
Drops below altitude 10° 05:19:04 10° 192° (SSW) 2,705 6.3 -10.9°
Sets 05:21:35 0° 188° (S) 3,639 7.0 -10.5°
